Prairie Du Chien, WI

4:34 AM CDT on May 27, 2017 (GMT -0500)
Prairie Du Chien Municipal

Weather History for KPDC - April, 2013

Change the Weather History Date:

Wednesday, April 10, 2013

  Actual Average Record
Temperature  
Mean Temperature 35 °F -  
Max Temperature 37 °F 57 °F 84 °F (1977)
Min Temperature 33 °F 33 °F 19 °F (1960)
Degree Days  
Heating Degree Days 30    
Moisture  
Dew Point 33 °F    
Average Humidity 90    
Maximum Humidity 98    
Minimum Humidity 83    
Precipitation  
Precipitation 0.63 in - - ()
Sea Level Pressure  
Sea Level Pressure 29.94 in    
Wind  
Wind Speed 10 mph (NE)    
Max Wind Speed 30 mph    
Max Gust Speed 47 mph    
Visibility 8 miles    
Events Rain , Snow    
Averages and records for this station are not official NWS values.
T = Trace of Precipitation, MM = Missing Value Source: NWS Daily Summary

Daily Weather History Graph

Daily Weather History Graph

Search for Another Location

Airport or City:

Trip Planner

Search our weather history database for the weather conditions in past years. The results will help you decide how hot, cold, wet, or windy it might be!

Date:

Astronomy

Apr. 10, 2013 Rise Set
Actual Time 6:30 AM CDT 7:41 PM CDT
Civil Twilight 6:01 AM CDT 8:10 PM CDT
Nautical Twilight 5:26 AM CDT 8:45 PM CDT
Astronomical Twilight 4:49 AM CDT 9:22 PM CDT
Moon 6:25 AM CDT (4/10) 8:19 PM CDT (4/10)
Length of Visible Light 14h 09m
Length of Day
13h 11m
New Moon, 0% of the Moon is Illuminated
Apr 10
New Moon
Apr 18
First Quarter
Apr 25
Full
May 2
Last Quarter
May 9
New

Hourly Weather History & Observations

Time (CDT) Temp. Windchill Dew Point Humidity Pressure Visibility Wind Dir Wind Speed Gust Speed Precip Events Conditions
12:35 AM 35.8 °F 27.8 °F 34.9 °F 97% 29.97 in 10.0 mi East 11.5 mph 19.6 mph 0.02 in Rain Light Rain
12:55 AM 35.8 °F 29.4 °F 34.9 °F 97% 29.96 in 10.0 mi NE 8.1 mph - 0.02 in   Overcast
1:15 AM 36.0 °F 29.6 °F 35.1 °F 97% 29.98 in 10.0 mi NE 8.1 mph 18.4 mph 0.01 in   Overcast
1:35 AM 35.2 °F 28.1 °F 34.3 °F 97% 29.96 in 10.0 mi NE 9.2 mph 17.3 mph 0.01 in   Overcast
1:55 AM 35.4 °F 27.8 °F 34.5 °F 97% 29.93 in 10.0 mi ENE 10.4 mph 25.3 mph 0.01 in   Overcast
2:15 AM 36.5 °F 25.4 °F 32.4 °F 85% 30.03 in 10.0 mi WNW 21.9 mph 27.6 mph N/A   Overcast
2:55 AM 35.1 °F 26.9 °F 33.6 °F 94% 29.99 in 1.2 mi ENE 11.5 mph 29.9 mph 0.28 in Snow Light Snow
3:15 AM 35.6 °F 30.7 °F 34.7 °F 97% 29.98 in 4.0 mi NW 5.8 mph - 0.06 in Rain Rain
3:35 AM 35.1 °F 28.6 °F 34.2 °F 97% 29.94 in 7.0 mi East 8.1 mph - 0.09 in Rain Light Rain
3:55 AM 34.7 °F 31.8 °F 34.0 °F 97% 29.93 in 5.0 mi NW 3.5 mph 17.3 mph 0.12 in Rain Light Rain
4:15 AM 34.7 °F 24.0 °F 33.8 °F 97% 29.88 in 7.0 mi East 18.4 mph 24.2 mph 0.02 in Rain Rain
4:35 AM 34.3 °F 26.5 °F 33.8 °F 98% 29.98 in 10.0 mi NNW 10.4 mph 26.5 mph 0.03 in Rain Light Rain
4:55 AM 34.3 °F 27.0 °F 33.8 °F 98% 30.01 in 10.0 mi North 9.2 mph - 0.03 in   Light Drizzle
5:15 AM 34.0 °F 28.0 °F 33.3 °F 97% 29.99 in 10.0 mi NNW 6.9 mph - N/A Rain Light Rain
5:35 AM 33.8 °F 29.6 °F 32.9 °F 96% 29.99 in 10.0 mi North 4.6 mph - 0.01 in   Overcast
5:55 AM 33.6 °F 28.4 °F 32.9 °F 97% 29.99 in 10.0 mi North 5.8 mph - 0.01 in   Overcast
6:15 AM 33.4 °F 29.1 °F 32.9 °F 98% 29.99 in 10.0 mi North 4.6 mph - N/A   Overcast
6:35 AM 33.3 °F 25.1 °F 32.5 °F 97% 29.96 in 10.0 mi NE 10.4 mph 16.1 mph N/A   Overcast
6:55 AM 33.4 °F 25.9 °F 32.7 °F 97% 29.92 in 10.0 mi East 9.2 mph 19.6 mph N/A   Overcast
7:15 AM 34.0 °F 26.6 °F 31.1 °F 89% 29.86 in 10.0 mi ENE 9.2 mph 23.0 mph N/A   Overcast
7:35 AM 34.5 °F 26.2 °F 31.1 °F 87% 29.90 in 10.0 mi East 11.5 mph - N/A   Overcast
7:55 AM 34.5 °F 25.7 °F 31.6 °F 89% 29.92 in 10.0 mi East 12.7 mph 20.7 mph N/A   Overcast
8:15 AM 34.3 °F 26.5 °F 31.3 °F 89% 29.94 in 5.0 mi ENE 10.4 mph 17.3 mph N/A   Overcast
8:35 AM 34.2 °F 28.2 °F 31.6 °F 90% 29.97 in 5.0 mi NE 6.9 mph 17.3 mph N/A   Overcast
8:55 AM 34.5 °F - 32.0 °F 90% 29.98 in 4.0 mi Calm Calm - N/A   Overcast
9:15 AM 34.7 °F 31.8 °F 32.0 °F 90% 30.02 in 4.0 mi NNE 3.5 mph - N/A   Overcast
9:35 AM 34.7 °F - 32.4 °F 91% 30.04 in 1.2 mi Calm Calm - N/A   Drizzle
9:55 AM 34.7 °F 30.6 °F 32.9 °F 93% 30.02 in 1.5 mi NE 4.6 mph - N/A   Drizzle
10:35 AM 35.4 °F 27.8 °F 32.9 °F 91% 29.96 in 2.5 mi ENE 10.4 mph 16.1 mph 0.01 in   Overcast
10:55 AM 36.1 °F 27.7 °F 33.3 °F 89% 29.94 in 10.0 mi ENE 12.7 mph 17.3 mph 0.01 in   Overcast
11:15 AM 36.7 °F 31.2 °F 33.1 °F 87% 29.95 in 10.0 mi NE 6.9 mph - N/A   Overcast
11:35 AM 37.2 °F 31.2 °F 33.3 °F 86% 29.96 in 10.0 mi NE 8.1 mph - N/A   Overcast
11:55 AM 37.4 °F 33.8 °F 32.7 °F 83% 29.99 in 10.0 mi NNE 4.6 mph 9.2 mph N/A   Overcast
12:15 PM 37.4 °F 29.3 °F 33.1 °F 84% 29.98 in 10.0 mi ENE 12.7 mph - N/A   Light Drizzle
12:35 PM 37.6 °F 33.1 °F 33.6 °F 86% 29.99 in 10.0 mi ENE 5.8 mph - N/A   Light Drizzle
12:55 PM 37.4 °F 30.8 °F 33.4 °F 86% 29.99 in 10.0 mi ENE 9.2 mph - N/A   Light Drizzle
1:15 PM 37.4 °F 28.9 °F 33.3 °F 85% 29.98 in 10.0 mi East 13.8 mph 18.4 mph N/A   Light Drizzle
1:35 PM 37.0 °F 29.3 °F 32.5 °F 84% 29.99 in 10.0 mi ENE 11.5 mph 17.3 mph N/A Rain Rain
1:55 PM 37.0 °F 34.5 °F 33.1 °F 86% 30.01 in 5.0 mi ENE 3.5 mph - 0.01 in Rain Light Rain
2:15 PM 36.7 °F 29.9 °F 33.3 °F 87% 30.03 in 4.0 mi East 9.2 mph - 0.02 in Rain Light Rain
2:35 PM 36.5 °F 29.2 °F 33.6 °F 89% 30.01 in 3.0 mi ENE 10.4 mph - 0.06 in Rain Light Rain
2:55 PM 36.5 °F 31.8 °F 33.8 °F 90% 30.00 in 3.0 mi ENE 5.8 mph - 0.10 in Rain Light Rain
3:15 PM 36.9 °F 30.1 °F 33.6 °F 88% 29.99 in 10.0 mi ENE 9.2 mph - N/A   Light Drizzle
3:35 PM 37.0 °F 28.9 °F 33.4 °F 87% 29.96 in 10.0 mi ENE 12.7 mph - N/A   Overcast
3:55 PM 36.9 °F 28.2 °F 32.9 °F 86% 29.92 in 10.0 mi ENE 13.8 mph 19.6 mph N/A   Overcast
4:15 PM 37.0 °F 28.9 °F 33.1 °F 86% 29.89 in 10.0 mi East 12.7 mph 19.6 mph N/A   Overcast
4:35 PM 37.0 °F 29.3 °F 32.7 °F 84% 29.90 in 10.0 mi ENE 11.5 mph - N/A   Overcast
4:55 PM 36.9 °F 29.6 °F 32.7 °F 85% 29.89 in 10.0 mi ENE 10.4 mph 21.9 mph N/A   Overcast
5:15 PM 36.7 °F 28.9 °F 32.5 °F 85% 29.89 in 10.0 mi ENE 11.5 mph 18.4 mph N/A   Overcast
5:35 PM 36.7 °F 29.9 °F 32.5 °F 85% 29.87 in 10.0 mi ENE 9.2 mph - N/A   Overcast
5:55 PM 37.2 °F 31.2 °F 32.9 °F 84% 29.90 in 10.0 mi ENE 8.1 mph - N/A   Overcast
6:15 PM 37.4 °F 30.3 °F 33.1 °F 84% 29.92 in 10.0 mi NE 10.4 mph 16.1 mph N/A   Overcast
6:35 PM 37.4 °F 32.1 °F 33.3 °F 85% 29.92 in 10.0 mi East 6.9 mph - N/A   Overcast
6:55 PM 37.4 °F - 33.8 °F 87% 29.95 in 4.0 mi Calm Calm - N/A   Heavy Drizzle
7:15 PM 36.9 °F 34.3 °F 34.2 °F 90% 29.93 in 2.5 mi NNE 3.5 mph - 0.02 in   Heavy Drizzle
7:35 PM 36.7 °F 32.0 °F 34.3 °F 91% 29.93 in 4.0 mi NNE 5.8 mph - 0.03 in   Drizzle
7:55 PM 36.5 °F 30.3 °F 33.8 °F 90% 29.92 in 7.0 mi NNE 8.1 mph - 0.03 in   Overcast
8:15 PM 36.5 °F 29.7 °F 33.4 °F 89% 29.93 in 7.0 mi NNE 9.2 mph - N/A   Overcast
8:35 PM 36.5 °F 29.7 °F 33.1 °F 87% 29.91 in 7.0 mi NE 9.2 mph 17.3 mph N/A   Overcast
8:55 PM 36.1 °F 26.5 °F 32.9 °F 88% 29.89 in 7.0 mi ENE 16.1 mph 23.0 mph N/A   Light Drizzle
9:15 PM 36.1 °F 29.3 °F 32.7 °F 87% 29.91 in 7.0 mi ENE 9.2 mph 19.6 mph N/A   Overcast
9:35 PM 36.1 °F 26.9 °F 32.7 °F 87% 29.91 in 10.0 mi ENE 15.0 mph 20.7 mph N/A   Overcast
9:55 PM 36.1 °F 26.5 °F 32.7 °F 87% 29.90 in 10.0 mi ENE 16.1 mph 21.9 mph N/A   Overcast
10:15 PM 36.1 °F 28.2 °F 32.7 °F 87% 29.89 in 10.0 mi ENE 11.5 mph 20.7 mph N/A   Light Drizzle
10:35 PM 36.5 °F 28.7 °F 32.9 °F 87% 29.88 in 10.0 mi ENE 11.5 mph 17.3 mph N/A   Light Drizzle
10:55 PM 36.5 °F 28.7 °F 32.9 °F 87% 29.88 in 10.0 mi East 11.5 mph - N/A Rain Light Rain
11:15 PM 36.5 °F 27.0 °F 32.9 °F 87% 29.85 in 10.0 mi ENE 16.1 mph 23.0 mph N/A   Light Drizzle
11:35 PM 36.1 °F 23.3 °F 32.9 °F 88% 29.72 in 7.0 mi East 29.9 mph 38.0 mph 0.01 in Rain Light Rain
11:55 PM 36.0 °F 24.4 °F 32.9 °F 89% 29.69 in 7.0 mi East 23.0 mph 47.2 mph 0.01 in Rain Light Rain